Regional Weather Roundup
Issued by NWS

Home | Current Version | Previous Version | Text Only | Print | Product List | Glossary On
Versions: 1 2 3 4 5 6 7 8 9 10 11 12 13 14 15 16 17 18 19 20 21 22 23 24 25 26 27 28 29 30 31 32 33 34 35 36 37 38 39 40 41 42 43 44 45 46 47 48 49 50
000
ASUS43 KDMX 290308
RWRIA

WEATHER ROUNDUP FOR IOWA
NATIONAL WEATHER SERVICE DES MOINES IA
1000 PM CDT THU JUL 28 2016

NOTE: "FAIR" INDICATES FEW OR NO CLOUDS BELOW 12,000 FEET WITH NO
SIGNIFICANT WEATHER AND/OR OBSTRUCTIONS TO VISIBILITY.

* - THESE STATIONS ARE NOT NWS STATIONS...THUS NOT UNDER NWS
QUALITY CONTROL.  THEY ALSO DO NOT REPORT WEATHER SUCH
AS PRECIPITATION OR FOG.

IAZ001>003-012>014-020>022-031>034-043>046-290400-
   NORTHWEST IOWA

CITY           SKY/WX    TMP DP  RH WIND       PRES   REMARKS
CARROLL *      CLOUDY    66  64  94 CALM      30.01R
CHEROKEE *     PTCLDY    69  64  85 CALM      30.03R
DENISON *      PTCLDY    68  64  88 NE5       30.00R
LE MARS *      PTCLDY    70  63  78 NE6       30.04R
SHELDON *      CLEAR     64  63  94 N5        30.04R
SIOUX CITY     CLOUDY    74  62  66 NE9       30.02R
SPENCER        CLEAR     66  61  84 NE8       30.04R
STORM LAKE *   PTCLDY    68  64  88 NE7       30.04R
$$

IAZ055>058-069>071-079>083-090>094-290400-
   SOUTHWEST IOWA

CITY           SKY/WX    TMP DP  RH WIND       PRES   REMARKS
ATLANTIC *     PTCLDY    68  64  88 N3        30.00R
CLARINDA *       N/A     72  68  88 MISG      30.03R
COUNCIL BLFS *   N/A     72  64  78 NE6       30.02R
CRESTON *      PTCLDY    70  63  78 N6        30.02R
HARLAN  *      PTCLDY    68  64  88 N3        30.04R
LAMONI         CLEAR     68  64  87 NW5       29.99R
RED OAK *      CLOUDY    72  64  78 CALM      30.02R
SHENANDOAH *   CLOUDY    72  66  83 NE6       30.01R
$$

IAZ047>049-059>061-072>074-084-290400-
   CENTRAL IOWA

CITY           SKY/WX    TMP DP  RH WIND       PRES   REMARKS
AMES           PTCLDY    70  66  87 N9        29.98R
ANKENY *         N/A    N/A N/A N/A MISG        N/A
BOONE *          N/A     68  64  88 N10       29.99R
CHARITON *       N/A    N/A N/A N/A MISG        N/A
DES MOINES     PTCLDY    73  63  70 N7        29.97R
GRINNELL*      CLEAR     68  64  86 N6        29.97S
KNOXVILLE *    CLEAR     72  64  78 N6        29.95R
MARSHALLTOWN   PTCLDY    67  64  90 N10       29.97S
NEWTON *       CLEAR     70  66  88 N8        29.95F
PELLA *        CLEAR     68  64  85 N3        29.96F
PERRY *          N/A     67  66  94 NW5       30.00R
$$

IAZ004>006-015-016-023>025-035-036-290400-
   NORTH CENTRAL IOWA

CITY           SKY/WX    TMP DP  RH WIND       PRES   REMARKS
ALGONA *       MOCLDY    66  64  94 NE7       30.03R
ESTHERVILLE    CLOUDY    66  63  90 E8        30.04R
FORT DODGE *   MOCLDY    68  63  83 N6        30.02R
MASON CITY     CLOUDY    63  60  90 N7        30.03R
FOREST CITY *  MOCLDY    64  61  88 N5        30.02F
IOWA FALLS *     N/A     67  63  86 N7        30.01R
$$

IAZ007>011-017>019-026>030-037>042-050>054-066-290400-
   NORTHEAST IOWA

CITY           SKY/WX    TMP DP  RH WIND       PRES   REMARKS
CEDAR RAPIDS   CLEAR     69  68  96 NW7       29.94R
CHARLES CITY * CLOUDY    66  64  94 N8        30.00S
CLINTON *      CLOUDY    72  70  93 N5        29.92R
DECORAH *      CLOUDY    64  64 100 VRB7      29.98S FOG
DUBUQUE        MOCLDY    69  66  90 NE5       29.95R
MONTICELLO *   MOCLDY    68  66  94 N7        29.94R
OELWEIN *      CLOUDY    66  63  88 N8G14     29.98S
WATERLOO       CLOUDY    67  61  81 N9        29.96S
$$

IAZ064-065-067-068-078-290400-
   EAST CENTRAL IOWA

CITY           SKY/WX    TMP DP  RH WIND       PRES   REMARKS
DAVENPORT      CLEAR     70  67  90 W6        29.92R
IOWA CITY      PTCLDY    72  66  81 NW5       29.95R
MT. PLEASANT * CLEAR     73  67  80 NW3       29.94S
MUSCATINE *    CLEAR     72  66  83 W6        29.93R
QUAD CITIES    CLEAR     76  66  71 NW8       29.91R
$$

IAZ062-063-075>077-085>089-095>099-290400-
   SOUTHEAST IOWA

CITY           SKY/WX    TMP DP  RH WIND       PRES   REMARKS
BURLINGTON     CLEAR     72  67  84 CALM      29.93R
FAIRFIELD *    CLEAR     68  64  88 NW5       29.94S
KEOKUK *       CLEAR     72  68  88 CALM      29.93S
OTTUMWA        CLEAR     68  63  84 NW6       29.95S
WASHINGTON *   CLEAR     70  66  88 NW6       29.95S
$$

ABBREVIATIONS USED IN REMARKS
   TC - TEMPERATURES IN CELSIUS
  WCI - WIND CHILL INDEX
   HX - HEAT INDEX
  VSB - VISIBILITY
$$




USA.gov is the U.S. government's official web portal to all federal, state and local government web resources and services.